Regional Weather Roundup
Issued by NWS

Home | Current Version | Previous Version | Graphics & Text | Print | Product List | Glossary On
Versions: 1 2 3 4 5 6 7 8 9 10 11 12 13 14 15 16 17 18 19 20 21 22 23 24 25 26 27 28 29 30 31 32 33 34 35 36 37 38 39 40 41 42 43 44 45 46 47 48 49 50
000
ASUS45 KPSR 252010
RWRAZ

ARIZONA REGIONAL HOURLY WEATHER ROUNDUP
NATIONAL WEATHER SERVICE PHOENIX AZ
100 PM MST SAT APR 25 2015

NOTE: FAIR INDICATES FEW OR NO CLOUDS BELOW 12,000 FEET WITH NO
SIGNIFICANT WEATHER AND/OR OBSTRUCTIONS TO VISIBILITY.

AZZ001>003-036-252100-
NORTHWEST ARIZONA

CITY           SKY/WX    TMP DP  RH WIND       PRES   REMARKS
BULLHEAD CITY  CLOUDY    72  36  26 S21G30    29.75F
KINGMAN        LGT RAIN  52  43  71 S15       29.84F
$$

AZZ004>008-015-016-018-252100-
NORTH CENTRAL ARIZONA

CITY           SKY/WX    TMP DP  RH WIND       PRES   REMARKS
GRAND CANYON   LGT RAIN  51  35  54 SW26G41   29.86F
WILLIAMS       CLOUDY    50  34  53 SW24G33   29.96F
PRESCOTT       CLOUDY    54  37  52 S17G28    29.91F
FLAGSTAFF      LGT RAIN  42  40  92 SW16G29   29.90F FOG
PAYSON         CLOUDY    55  39  54 S12G22    29.95F
PAGE           CLOUDY    66  33  29 SW13G24   29.74F
$$

AZZ009>014-017-252100-
NORTHEAST ARIZONA

CITY           SKY/WX    TMP DP  RH WIND       PRES   REMARKS
WINSLOW        PTSUNNY   66  33  29 SW23G36   29.87F
SAINT JOHNS    SUNNY     66  24  20 SW18G29   29.86F
WINDOW ROCK    PTSUNNY   59  28  30 SW13G22   29.89F
SHOW LOW       SUNNY     57  28  33 SW24G38   29.93F
$$

AZZ023-252100-
GREATER PHOENIX AREA

CITY           SKY/WX    TMP DP  RH WIND       PRES   REMARKS
PHOENIX        PTSUNNY   77  43  29 VRB3      29.82F
BUCKEYE        PTSUNNY   73  48  40 S10       29.83F
GLENDALE       PTSUNNY   82  43  24 SE7       29.85F
LUKE AFB       PTSUNNY   76  45  32 SW14G23   29.83
DEER VALLEY    PTSUNNY   73  43  33 SW7       29.84F
SCOTTSDALE     PTSUNNY   74  43  32 SW9G21    29.85F
MESA-GATEWAY   PTSUNNY   75  43  31 SW13      29.87F
CHANDLER       PTSUNNY   75  43  31 S8        29.84F
$$

AZZ027-028-252100-
SOUTHWEST MARICOPA COUNTY AND PINAL COUNTY

CITY           SKY/WX    TMP DP  RH WIND       PRES   REMARKS
CASA GRANDE    MOSUNNY   79  39  24 W16G22    29.83F
GILA BEND      PTSUNNY   78  45  30 SW15G22   29.81F
$$

AZZ503-504-507>509-252100-
SOUTHEAST ARIZONA

CITY           SKY/WX    TMP DP  RH WIND       PRES   REMARKS
TUCSON         MOSUNNY   76  36  23 VRB3      29.90F
DAVIS-MONTHAN  MOSUNNY   75  36  24 NW12G20   29.87F
RYAN FIELD       N/A     79  37  22 W15       29.89F
NOGALES        SUNNY     75  25  15 S16G28    29.94F
SIERRA VISTA   SUNNY     72  21  15 W18G26    29.95S
DOUGLAS        SUNNY     74  26  16 W20G32    29.93F
SAFFORD        PTSUNNY   73  34  23 NW6       29.86F
$$

AZZ020-021-025-026-031-252100-
SOUTHWEST ARIZONA

CITY           SKY/WX    TMP DP  RH WIND       PRES   REMARKS
YUMA           MOSUNNY   76  45  33 W14       29.86F
$$

CAZ031-033-041-043-047-048-061-252100-
SOUTHERN CALIFORNIA

CITY           SKY/WX    TMP DP  RH WIND       PRES   REMARKS
DOWNTOWN L.A.  CLOUDY    63  51  65 W8        29.96F
L.A. AIRPORT   CLOUDY    61  55  81 W20G28    29.97F
SAN DIEGO      CLOUDY    64  50  59 SW10G20   30.03S
BURBANK        CLOUDY    61  48  62 S7        29.95F
ONTARIO        CLOUDY    60  48  64 SW12G23   29.95F
RIVERSIDE      CLOUDY    63  47  55 W12       29.95F
PALM SPRINGS   CLOUDY    72  44  36 NW12G23   29.84F
EL CENTRO NAS  CLOUDY    73  42  32 W31G38    29.88F
IMPERIAL       CLOUDY    71  45  39 W23G36    29.86F
BLYTHE         PTSUNNY   76  43  30 S15G24    29.80F
NEEDLES        PTSUNNY   76  36  23 S13G25    29.77F
$$

NVZ020-UTZ003-252100-
SOUTHERN NEVADA-UTAH

CITY           SKY/WX    TMP DP  RH WIND       PRES   REMARKS
LAS VEGAS      CLOUDY    67  30  25 S21G29    29.68F
SALT LAKE CITY CLOUDY    58  38  47 S9        29.70F
$$

NMZ009-TXZ055-252100-
NEW MEXICO-WEST TEXAS

CITY           SKY/WX    TMP DP  RH WIND       PRES   REMARKS
ALBUQUERQUE    PTSUNNY   64  31  28 S5        29.87F
EL PASO        MOSUNNY   76  15  10 SW18      29.88F
$$


........................KEY........................
SKY/WX - SKY CONDITION/WEATHER
TMP    - TEMPERATURE IN FAHRENHEIT
DP     - DEW POINT IN FAHRENHEIT
RH     - RELATIVE HUMIDITY IN PERCENT
WIND   - DIRECTION AND SPEED IN MILES PER HOUR (MPH)
VRB    - VARIABLE WIND DIRECTION
PRES   - MEAN SEA LEVEL PRESSURE IN INCHES OF MERCURY
         F - FALLING PRESSURE   R - RISING PRESSURE
         S - STEADY PRESSURE
VSB    - VISIBILITY IN MILES
HX     - HEAT INDEX IN FAHRENHEIT
WCI    - WIND CHILL INDEX IN FAHRENHEIT
TC     - TEMPERATURE IN CELSIUS WHICH IS ALSO KNOWN AS
         TEMPERATURE IN CENTIGRADE
AFB    - AIR FORCE BASE
         LUKE AFB IS LUKE AIR FORCE BASE
         DAVIS-MONTHAN IS DAVIS-MONTHAN AIR FORCE BASE
NAS    - NAVAL AIR STATION
         EL CENTRO NAS IS EL CENTRO NAVAL AIR STATION
N/A    - NOT AVAILABLE



USA.gov is the U.S. government's official web portal to all federal, state and local government web resources and services.